Volver al catálogo

INTELSAT 26

JCSAT 4

ActivoComunicacionesGEO
NORAD 24732·PAYLOAD· XX

Lanzado Feb 17, 1997 desde Cape Canaveral Space Force Station

Loading…

TLE

ActualizadoSource: Space-Track

Época: Sep 14, 2026, 12:13 UTC

1 24732U 97007A   26257.50926863 -.00000061  00000-0  00000-0 0  9990
2 24732  12.4154  28.8409 0009648 275.7739 259.4350  0.98907463107939

Sigue INTELSAT 26 en tiempo real con AllMySat

Download on the App Store